Weather History for KEWR - February, 2013

Change the Weather History Date:

Wednesday, February 20, 2013

  Actual Average Record
Temperature  
Mean Temperature 32 °F 36 °F  
Max Temperature 38 °F 43 °F 70 °F (1994)
Min Temperature 25 °F 28 °F 1 °F (2015)
Degree Days  
Heating Degree Days 33 29  
Month to date heating degree days 649 624  
Since 1 July heating degree days 3170 3408  
Cooling Degree Days 0 0  
Month to date cooling degree days 0 0  
Year to date cooling degree days 0 0  
Moisture  
Dew Point 13 °F    
Average Humidity 53    
Maximum Humidity 70    
Minimum Humidity 35    
Precipitation  
Precipitation 0.00 in 0.10 in 1.52 in (1981)
Month to date precipitation 2.00 2.01  
Year to date precipitation 4.49 5.55  
Snow  
Snow 0.00 in 0.40 in 1.70 in (2005)
Month to date snowfall 10.8 6.9  
Since 1 July snowfall 20.7 20.6  
Snow Depth 0.00 in    
Sea Level Pressure  
Sea Level Pressure 29.87 in    
Wind  
Wind Speed 20 mph (West)    
Max Wind Speed 30 mph    
Max Gust Speed 38 mph    
Visibility 10 miles    
Events      
T = Trace of Precipitation, MM = Missing Value Source: NWS Daily Summary

Daily Weather History Graph

Daily Weather History Graph

Search for Another Location

Airport or City:

Trip Planner

Search our weather history database for the weather conditions in past years. The results will help you decide how hot, cold, wet, or windy it might be!

Date:

Astronomy

Feb. 20, 2013 Rise Set
Actual Time 6:43 AM EST 5:37 PM EST
Civil Twilight 6:15 AM EST 6:05 PM EST
Nautical Twilight 5:43 AM EST 6:37 PM EST
Astronomical Twilight 5:12 AM EST 7:09 PM EST
Moon 12:56 PM EST (2/20) 3:02 AM EST (2/20)
Length of Visible Light 11h 49m
Length of Day
10h 54m
Waxing Gibbous, 76% of the Moon is Illuminated
Feb 20
Waxing Gibbous
Feb 25
Full
Mar 4
Last Quarter
Mar 11
New
Mar 19
First Quarter

Hourly Weather History & Observations

Time (EST) Temp. Windchill Dew Point Humidity Pressure Visibility Wind Dir Wind Speed Gust Speed Precip Events Conditions
12:51 AM 36.0 °F 25.0 °F 21.9 °F 57% 29.73 in 10.0 mi West 20.7 mph 29.9 mph N/A   Partly Cloudy
1:51 AM 35.1 °F 25.9 °F 21.9 °F 59% 29.75 in 10.0 mi West 13.8 mph - N/A   Scattered Clouds
2:51 AM 34.0 °F 23.8 °F 21.9 °F 61% 29.76 in 10.0 mi West 16.1 mph 26.5 mph N/A   Partly Cloudy
3:51 AM 32.0 °F 19.5 °F 17.1 °F 54% 29.77 in 10.0 mi WNW 21.9 mph 29.9 mph N/A   Partly Cloudy
4:51 AM 30.9 °F 20.2 °F 15.1 °F 52% 29.78 in 10.0 mi West 15.0 mph 21.9 mph N/A   Partly Cloudy
5:51 AM 30.9 °F 18.4 °F 15.1 °F 52% 29.80 in 10.0 mi West 20.7 mph 26.5 mph N/A   Clear
6:51 AM 30.9 °F 19.4 °F 16.0 °F 54% 29.83 in 10.0 mi WSW 17.3 mph 24.2 mph N/A   Scattered Clouds
7:51 AM 30.9 °F 17.2 °F 14.0 °F 50% 29.86 in 10.0 mi West 25.3 mph 34.5 mph N/A   Scattered Clouds
8:51 AM 32.0 °F 20.8 °F 10.9 °F 42% 29.87 in 10.0 mi West 17.3 mph 35.7 mph N/A   Scattered Clouds
9:51 AM 32.0 °F 18.4 °F 10.9 °F 42% 29.87 in 10.0 mi West 26.5 mph 33.4 mph N/A   Scattered Clouds
10:51 AM 33.1 °F 20.9 °F 12.9 °F 43% 29.87 in 10.0 mi West 21.9 mph 27.6 mph N/A   Mostly Cloudy
11:51 AM 32.0 °F 19.5 °F 10.0 °F 40% 29.86 in 10.0 mi NW 21.9 mph 33.4 mph N/A   Mostly Cloudy
12:51 PM 32.0 °F 20.1 °F 9.0 °F 38% 29.86 in 10.0 mi West 19.6 mph 27.6 mph N/A   Mostly Cloudy
1:51 PM 33.1 °F 20.6 °F 10.0 °F 38% 29.86 in 10.0 mi West 23.0 mph 31.1 mph N/A   Mostly Cloudy
2:51 PM 33.1 °F 20.1 °F 8.1 °F 35% 29.86 in 10.0 mi West 25.3 mph 32.2 mph N/A   Mostly Cloudy
3:51 PM 32.0 °F 18.9 °F 8.1 °F 37% 29.88 in 10.0 mi West 24.2 mph 35.7 mph N/A   Mostly Cloudy
4:51 PM 30.0 °F 17.5 °F 8.1 °F 40% 29.90 in 10.0 mi West 19.6 mph 29.9 mph N/A   Mostly Cloudy
5:51 PM 28.9 °F 14.8 °F 10.0 °F 45% 29.92 in 10.0 mi West 24.2 mph 31.1 mph N/A   Mostly Cloudy
6:51 PM 30.0 °F 17.2 °F 10.0 °F 43% 29.95 in 10.0 mi West 20.7 mph 27.6 mph N/A   Mostly Cloudy
7:51 PM 28.0 °F 14.9 °F 12.0 °F 51% 29.96 in 10.0 mi WNW 19.6 mph 27.6 mph N/A   Mostly Cloudy
8:51 PM 27.0 °F 16.7 °F 12.0 °F 53% 29.96 in 10.0 mi WNW 11.5 mph 26.5 mph N/A   Scattered Clouds
9:51 PM 26.6 °F 14.7 °F 8.6 °F 47% 29.97 in 10.0 mi WNW 15.0 mph - N/A   Partly Cloudy
10:51 PM 26.1 °F 14.5 °F 8.1 °F 47% 29.99 in 10.0 mi WNW 13.8 mph 23.0 mph N/A   Partly Cloudy
11:51 PM 26.1 °F 12.7 °F 9.0 °F 49% 30.00 in 10.0 mi WNW 18.4 mph 26.5 mph N/A   Scattered Clouds